QPF
0.00 0.00 0.00 0.00 0.01 0.01 0.00 0.00 0.00 0.00 0.00 0.00 0.01 0.03 0.04 0.05 0.06 0.06 0.03 0.00 0.00 0.00 0.00 0.01 0.02 0.04 0.04 0.03 0.02 0.01 0.01 0.00 0.00 0.00 0.00 0.00 0.00 0.00 0.00 0.00 0.00 0.00 0.00 0.00 0.00 0.00 0.00 0.00 0.00
0.00 0.00 0.00 0.00 0.00 0.00 0.00 0.00 0.00 0.00 0.00 0.00 0.01 0.02 0.02 0.02 0.04 0.06 0.02 0.00 0.01 0.01 0.01 0.01 0.02 0.03 0.03 0.03 0.02 0.01 0.01 0.01 0.00 0.00 0.00 0.00 0.00 0.00 0.00 0.00 0.00 0.00 0.00 0.00 0.00 0.00 0.00 0.00 0.00
0.00 0.00 0.00 0.00 0.00 0.00 0.00 0.00 0.00 0.00 0.00 0.00 0.01 0.01 0.02 0.03 0.05 0.06 0.02 0.01 0.01 0.01 0.01 0.01 0.02 0.03 0.03 0.03 0.02 0.02 0.01 0.01 0.01 0.00 0.00 0.00 0.00 0.00 0.00 0.00 0.00 0.01 0.01 0.01 0.00 0.00 0.00 0.00 0.01
0.00 0.00 0.00 0.00 0.00 0.00 0.00 0.00 0.00 0.00 0.00 0.00 0.00 0.01 0.01 0.02 0.03 0.03 0.01 0.01 0.01 0.01 0.02 0.02 0.02 0.03 0.03 0.03 0.02 0.02 0.02 0.01 0.01 0.01 0.00 0.00 0.01 0.01 0.01 0.01 0.01 0.01 0.01 0.01 0.01 0.00 0.01 0.01 0.01
0.00 0.00 0.00 0.00 0.00 0.00 0.00 0.00 0.00 0.00 0.00 0.00 0.00 0.01 0.02 0.01 0.01 0.01 0.00 0.00 0.01 0.02 0.02 0.02 0.04 0.04 0.03 0.03 0.03 0.03 0.02 0.01 0.01 0.00 0.00 0.00 0.01 0.01 0.01 0.01 0.00 0.01 0.01 0.01 0.01 0.01 0.01 0.01 0.01
0.00 0.00 0.00 0.00 0.00 0.00 0.00 0.00 0.00 0.00 0.00 0.00 0.01 0.02 0.03 0.03 0.02 0.01 0.01 0.01 0.01 0.01 0.01 0.02 0.04 0.05 0.04 0.04 0.04 0.03 0.02 0.01 0.01 0.01 0.01 0.01 0.01 0.01 0.01 0.01 0.00 0.01 0.01 0.02 0.01 0.02 0.02 0.01 0.01
0.00 0.00 0.00 0.00 0.00 0.00 0.00 0.00 0.00 0.00 0.00 0.00 0.01 0.03 0.04 0.03 0.03 0.01 0.01 0.02 0.02 0.01 0.02 0.02 0.02 0.03 0.04 0.04 0.04 0.03 0.02 0.02 0.01 0.01 0.01 0.01 0.01 0.01 0.01 0.02 0.01 0.01 0.02 0.02 0.02 0.02 0.02 0.02 0.01
0.00 0.00 0.00 0.00 0.00 0.00 0.00 0.00 0.00 0.00 0.00 0.00 0.00 0.04 0.05 0.03 0.02 0.02 0.02 0.03 0.04 0.04 0.03 0.03 0.02 0.03 0.02 0.02 0.03 0.03 0.03 0.02 0.02 0.03 0.03 0.03 0.02 0.02 0.02 0.02 0.03 0.03 0.03 0.03 0.03 0.02 0.03 0.02 0.02
0.00 0.00 0.00 0.00 0.00 0.00 0.00 0.00 0.00 0.00 0.00 0.00 0.00 0.03 0.05 0.03 0.03 0.03 0.04 0.05 0.05 0.04 0.03 0.03 0.03 0.03 0.03 0.02 0.03 0.04 0.03 0.03 0.03 0.04 0.04 0.04 0.04 0.04 0.04 0.04 0.05 0.06 0.07 0.06 0.05 0.05 0.04 0.03 0.03
0.00 0.00 0.00 0.00 0.00 0.00 0.00 0.00 0.00 0.00 0.00 0.00 0.01 0.02 0.03 0.04 0.04 0.04 0.04 0.04 0.03 0.02 0.03 0.04 0.04 0.03 0.03 0.04 0.05 0.07 0.05 0.04 0.04 0.06 0.06 0.07 0.08 0.08 0.05 0.04 0.06 0.07 0.06 0.06 0.06 0.07 0.06 0.06 0.06
0.00 0.00 0.00 0.00 0.00 0.00 0.00 0.00 0.00 0.00 0.00 0.00 0.01 0.03 0.04 0.05 0.06 0.05 0.06 0.06 0.04 0.02 0.02 0.02 0.03 0.04 0.05 0.07 0.07 0.07 0.07 0.07 0.07 0.08 0.08 0.09 0.08 0.05 0.03 0.04 0.04 0.04 0.04 0.05 0.06 0.06 0.05 0.06 0.06
0.00 0.00 0.00 0.00 0.00 0.00 0.00 0.00 0.00 0.00 0.00 0.00 0.01 0.03 0.07 0.08 0.07 0.07 0.11 0.11 0.05 0.03 0.04 0.04 0.04 0.05 0.06 0.08 0.08 0.08 0.09 0.09 0.08 0.08 0.06 0.06 0.04 0.03 0.03 0.04 0.04 0.04 0.06 0.05 0.04 0.06 0.06 0.07 0.07
0.00 0.00 0.00 0.00 0.00 0.00 0.00 0.00 0.00 0.00 0.00 0.01 0.03 0.05 0.10 0.10 0.08 0.10 0.11 0.12 0.07 0.05 0.05 0.05 0.05 0.06 0.08 0.10 0.10 0.08 0.09 0.08 0.06 0.04 0.04 0.03 0.02 0.02 0.02 0.03 0.03 0.04 0.04 0.02 0.02 0.04 0.05 0.06 0.06
0.00 0.00 0.00 0.00 0.00 0.00 0.00 0.00 0.00 0.00 0.01 0.01 0.04 0.10 0.13 0.14 0.13 0.12 0.10 0.11 0.10 0.09 0.08 0.07 0.06 0.07 0.09 0.10 0.11 0.10 0.08 0.05 0.03 0.02 0.02 0.01 0.01 0.01 0.01 0.02 0.03 0.04 0.03 0.02 0.02 0.02 0.03 0.04 0.05
0.00 0.00 0.00 0.00 0.00 0.00 0.00 0.00 0.00 0.00 0.01 0.01 0.04 0.08 0.13 0.16 0.18 0.20 0.17 0.13 0.12 0.12 0.12 0.11 0.11 0.11 0.11 0.12 0.13 0.10 0.08 0.04 0.02 0.01 0.01 0.01 0.01 0.00 0.01 0.01 0.01 0.02 0.02 0.02 0.02 0.02 0.01 0.02 0.02
0.00 0.00 0.00 0.00 0.00 0.00 0.00 0.00 0.00 0.01 0.01 0.01 0.05 0.11 0.17 0.21 0.23 0.22 0.25 0.18 0.14 0.15 0.15 0.14 0.11 0.12 0.11 0.11 0.13 0.11 0.08 0.04 0.01 0.01 0.01 0.01 0.00 0.00 0.01 0.01 0.01 0.00 0.01 0.01 0.02 0.02 0.01 0.01 0.01
0.00 0.00 0.00 0.00 0.00 0.00 0.00 0.00 0.00 0.00 0.01 0.02 0.03 0.11 0.17 0.22 0.24 0.18 0.19 0.19 0.18 0.19 0.18 0.17 0.16 0.16 0.14 0.13 0.12 0.10 0.06 0.03 0.01 0.01 0.01 0.01 0.00 0.00 0.01 0.00 0.00 0.00 0.00 0.00 0.01 0.01 0.01 0.01 0.01
0.00 0.00 0.00 0.00 0.00 0.00 0.00 0.00 0.00 0.01 0.02 0.02 0.03 0.06 0.10 0.13 0.14 0.15 0.12 0.13 0.18 0.21 0.19 0.17 0.14 0.14 0.13 0.10 0.08 0.06 0.03 0.01 0.00 0.00 0.00 0.00 0.00 0.00 0.00 0.00 0.00 0.00 0.00 0.00 0.00 0.00 0.00 0.01 0.01
0.00 0.00 0.00 0.00 0.00 0.00 0.00 0.00 0.00 0.00 0.01 0.01 0.02 0.04 0.08 0.09 0.10 0.12 0.11 0.10 0.14 0.22 0.22 0.17 0.15 0.13 0.11 0.08 0.05 0.04 0.02 0.01 0.00 0.00 0.00 0.00 0.00 0.00 0.00 0.00 0.00 0.00 0.00 0.00 0.00 0.00 0.00 0.00 0.00
0.00 0.00 0.00 0.00 0.00 0.00 0.00 0.00 0.00 0.00 0.00 0.01 0.01 0.02 0.05 0.07 0.11 0.10 0.10 0.10 0.11 0.20 0.21 0.16 0.14 0.12 0.10 0.07 0.05 0.04 0.03 0.01 0.00 0.00 0.00 0.00 0.00 0.00 0.00 0.00 0.00 0.00 0.00 0.00 0.00 0.00 0.00 0.00 0.00
0.00 0.00 0.00 0.00 0.00 0.00 0.00 0.00 0.00 0.00 0.00 0.00 0.00 0.01 0.01 0.03 0.06 0.07 0.07 0.08 0.10 0.14 0.15 0.14 0.13 0.09 0.08 0.06 0.04 0.03 0.02 0.00 0.00 0.00 0.00 0.00 0.00 0.00 0.00 0.00 0.00 0.00 0.00 0.00 0.00 0.00 0.00 0.00 0.00
0.00 0.00 0.00 0.00 0.00 0.00 0.00 0.00 0.00 0.00 0.00 0.00 0.00 0.00 0.01 0.01 0.03 0.03 0.04 0.06 0.08 0.12 0.14 0.12 0.11 0.07 0.05 0.04 0.03 0.02 0.01 0.00 0.00 0.00 0.00 0.00 0.00 0.00 0.00 0.00 0.00 0.00 0.00 0.00 0.00 0.00 0.00 0.00 0.00
0.00 0.00 0.00 0.00 0.00 0.00 0.00 0.00 0.00 0.00 0.00 0.00 0.00 0.00 0.00 0.01 0.01 0.02 0.04 0.06 0.07 0.08 0.10 0.08 0.07 0.05 0.03 0.03 0.02 0.02 0.01 0.01 0.00 0.00 0.00 0.00 0.00 0.00 0.00 0.00 0.00 0.00 0.00 0.00 0.00 0.00 0.00 0.00 0.00
0.00 0.00 0.00 0.00 0.00 0.00 0.00 0.00 0.00 0.00 0.00 0.00 0.00 0.00 0.00 0.00 0.01 0.03 0.03 0.03 0.03 0.06 0.04 0.04 0.03 0.03 0.02 0.01 0.01 0.01 0.00 0.00 0.00 0.00 0.00 0.00 0.00 0.00 0.00 0.00 0.00 0.00 0.00 0.00 0.00 0.00 0.00 0.00 0.00
0.00 0.00 0.00 0.00 0.00 0.00 0.00 0.00 0.00 0.00 0.00 0.00 0.00 0.00 0.00 0.00 0.01 0.01 0.02 0.01 0.02 0.03 0.02 0.02 0.02 0.01 0.01 0.01 0.01 0.00 0.00 0.00 0.00 0.00 0.00 0.00 0.00 0.00 0.00 0.00 0.00 0.00 0.00 0.00 0.00 0.00 0.00 0.00 0.00
0.00 0.00 0.00 0.00 0.00 0.00 0.00 0.00 0.00 0.00 0.00 0.00 0.00 0.00 0.00 0.00 0.00 0.01 0.01 0.01 0.01 0.01 0.02 0.01 0.01 0.01 0.01 0.00 0.00 0.00 0.00 0.00 0.00 0.00 0.00 0.00 0.00 0.00 0.00 0.00 0.00 0.00 0.00 0.00 0.00 0.00 0.00 0.00 0.00
0.00 0.00 0.00 0.00 0.00 0.00 0.00 0.00 0.00 0.00 0.00 0.00 0.00 0.00 0.00 0.00 0.00 0.00 0.00 0.01 0.01 0.01 0.01 0.01 0.01 0.01 0.01 0.00 0.00 0.00 0.00 0.00 0.00 0.00 0.00 0.00 0.00 0.00 0.00 0.00 0.00 0.00 0.00 0.00 0.00 0.00 0.00 0.00 0.00
0.00 0.00 0.00 0.00 0.00 0.00 0.00 0.00 0.00 0.00 0.00 0.00 0.00 0.00 0.00 0.00 0.00 0.00 0.00 0.00 0.00 0.01 0.01 0.01 0.01 0.01 0.00 0.00 0.00 0.00 0.00 0.00 0.00 0.00 0.00 0.00 0.00 0.00 0.00 0.00 0.00 0.00 0.00 0.00 0.00 0.00 0.00 0.00 0.00
0.00 0.00 0.00 0.00 0.00 0.00 0.00 0.00 0.00 0.00 0.00 0.00 0.00 0.00 0.00 0.00 0.00 0.00 0.00 0.00 0.00 0.00 0.00 0.00 0.00 0.00 0.00 0.00 0.00 0.00 0.00 0.00 0.00 0.00 0.00 0.00 0.00 0.00 0.00 0.00 0.00 0.00 0.00 0.00 0.00 0.00 0.00 0.00 0.00
0.00 0.00 0.00 0.00 0.00 0.00 0.00 0.00 0.00 0.00 0.00 0.00 0.00 0.00 0.00 0.00 0.00 0.00 0.00 0.00 0.00 0.00 0.00 0.00 0.00 0.00 0.00 0.00 0.00 0.00 0.00 0.01 0.00 0.00 0.00 0.00 0.00 0.00 0.00 0.00 0.00 0.00 0.00 0.00 0.00 0.00 0.00 0.00 0.00
MSLP
1012.60 1012.84 1013.10 1013.32 1013.46 1013.50 1013.45 1013.35 1013.25 1013.19 1013.21 1013.29 1013.39 1013.46 1013.44 1013.30 1013.04 1012.70 1012.36 1012.12 1012.05 1012.21 1012.60 1013.17 1013.84 1014.51 1015.08 1015.49 1015.73 1015.82 1015.84 1015.84 1015.92 1016.09 1016.35 1016.68 1017.02 1017.31 1017.51 1017.60 1017.60 1017.55 1017.50 1017.48 1017.51 1017.60 1017.72 1017.84 1017.91
1012.62 1012.87 1013.12 1013.31 1013.41 1013.40 1013.29 1013.14 1012.98 1012.87 1012.82 1012.82 1012.86 1012.87 1012.80 1012.64 1012.39 1012.10 1011.83 1011.68 1011.72 1011.99 1012.48 1013.15 1013.90 1014.64 1015.27 1015.73 1016.01 1016.14 1016.18 1016.21 1016.27 1016.42 1016.65 1016.92 1017.20 1017.43 1017.59 1017.65 1017.65 1017.61 1017.59 1017.61 1017.69 1017.82 1017.96 1018.08 1018.14
1012.70 1012.95 1013.18 1013.33 1013.37 1013.30 1013.13 1012.92 1012.71 1012.54 1012.44 1012.40 1012.38 1012.36 1012.28 1012.12 1011.90 1011.66 1011.46 1011.40 1011.52 1011.87 1012.43 1013.16 1013.96 1014.74 1015.41 1015.91 1016.24 1016.42 1016.50 1016.55 1016.62 1016.76 1016.95 1017.18 1017.40 1017.57 1017.69 1017.73 1017.73 1017.72 1017.74 1017.81 1017.93 1018.08 1018.24 1018.35 1018.38
1012.84 1013.09 1013.28 1013.37 1013.35 1013.21 1012.98 1012.71 1012.45 1012.25 1012.12 1012.06 1012.04 1012.01 1011.95 1011.82 1011.64 1011.46 1011.33 1011.33 1011.51 1011.90 1012.49 1013.23 1014.03 1014.82 1015.49 1016.02 1016.38 1016.61 1016.73 1016.82 1016.92 1017.05 1017.22 1017.41 1017.59 1017.73 1017.81 1017.84 1017.86 1017.88 1017.94 1018.05 1018.21 1018.38 1018.54 1018.62 1018.62
1013.04 1013.26 1013.40 1013.42 1013.32 1013.10 1012.81 1012.50 1012.22 1012.01 1011.90 1011.86 1011.86 1011.87 1011.85 1011.78 1011.67 1011.54 1011.47 1011.51 1011.71 1012.10 1012.67 1013.38 1014.14 1014.88 1015.53 1016.06 1016.43 1016.69 1016.86 1016.99 1017.12 1017.27 1017.44 1017.61 1017.76 1017.87 1017.93 1017.96 1017.99 1018.05 1018.15 1018.30 1018.48 1018.67 1018.81 1018.87 1018.82
1013.27 1013.45 1013.51 1013.45 1013.26 1012.97 1012.63 1012.30 1012.02 1011.84 1011.76 1011.78 1011.85 1011.93 1011.99 1011.99 1011.94 1011.88 1011.85 1011.92 1012.11 1012.47 1012.98 1013.61 1014.29 1014.95 1015.54 1016.03 1016.40 1016.67 1016.88 1017.05 1017.22 1017.40 1017.58 1017.75 1017.89 1017.98 1018.03 1018.07 1018.11 1018.18 1018.31 1018.48 1018.68 1018.87 1018.99 1019.02 1018.95
1013.49 1013.60 1013.58 1013.42 1013.14 1012.79 1012.42 1012.08 1011.83 1011.70 1011.69 1011.79 1011.95 1012.12 1012.27 1012.36 1012.39 1012.39 1012.40 1012.47 1012.65 1012.95 1013.38 1013.90 1014.47 1015.03 1015.54 1015.97 1016.32 1016.60 1016.83 1017.04 1017.25 1017.46 1017.66 1017.84 1017.97 1018.05 1018.09 1018.12 1018.16 1018.24 1018.37 1018.55 1018.75 1018.93 1019.05 1019.06 1018.97
1013.66 1013.68 1013.55 1013.30 1012.95 1012.56 1012.17 1011.85 1011.64 1011.58 1011.65 1011.84 1012.09 1012.36 1012.60 1012.77 1012.87 1012.93 1012.98 1013.06 1013.21 1013.46 1013.80 1014.22 1014.68 1015.14 1015.56 1015.93 1016.24 1016.51 1016.76 1017.00 1017.25 1017.49 1017.71 1017.89 1018.01 1018.08 1018.11 1018.11 1018.13 1018.20 1018.31 1018.48 1018.68 1018.85 1018.96 1018.98 1018.89
1013.74 1013.65 1013.43 1013.10 1012.69 1012.26 1011.88 1011.59 1011.44 1011.44 1011.60 1011.87 1012.20 1012.55 1012.86 1013.10 1013.27 1013.38 1013.46 1013.56 1013.70 1013.91 1014.19 1014.53 1014.90 1015.27 1015.61 1015.92 1016.20 1016.46 1016.72 1016.98 1017.25 1017.51 1017.74 1017.93 1018.04 1018.09 1018.09 1018.06 1018.04 1018.06 1018.15 1018.29 1018.47 1018.64 1018.76 1018.80 1018.73
1013.69 1013.51 1013.21 1012.81 1012.37 1011.94 1011.57 1011.33 1011.23 1011.30 1011.51 1011.84 1012.22 1012.62 1012.97 1013.27 1013.48 1013.64 1013.76 1013.88 1014.04 1014.24 1014.49 1014.79 1015.10 1015.42 1015.71 1015.98 1016.23 1016.48 1016.74 1017.01 1017.29 1017.56 1017.80 1017.98 1018.08 1018.10 1018.06 1017.98 1017.91 1017.89 1017.93 1018.04 1018.19 1018.35 1018.49 1018.56 1018.54
1013.52 1013.26 1012.90 1012.47 1012.02 1011.61 1011.29 1011.09 1011.04 1011.15 1011.39 1011.74 1012.14 1012.54 1012.91 1013.23 1013.47 1013.67 1013.83 1014.00 1014.19 1014.42 1014.68 1014.98 1015.28 1015.58 1015.85 1016.10 1016.34 1016.58 1016.83 1017.10 1017.39 1017.67 1017.90 1018.07 1018.16 1018.15 1018.07 1017.94 1017.82 1017.73 1017.72 1017.78 1017.91 1018.07 1018.22 1018.32 1018.37
1013.24 1012.94 1012.55 1012.12 1011.69 1011.32 1011.05 1010.90 1010.89 1011.02 1011.26 1011.59 1011.97 1012.35 1012.70 1013.01 1013.27 1013.49 1013.70 1013.92 1014.16 1014.45 1014.77 1015.10 1015.43 1015.75 1016.03 1016.28 1016.52 1016.75 1017.00 1017.27 1017.55 1017.82 1018.05 1018.21 1018.28 1018.25 1018.14 1017.97 1017.80 1017.66 1017.59 1017.60 1017.69 1017.84 1018.01 1018.15 1018.25
1012.91 1012.58 1012.20 1011.80 1011.43 1011.12 1010.90 1010.80 1010.81 1010.93 1011.16 1011.44 1011.76 1012.09 1012.40 1012.69 1012.94 1013.19 1013.44 1013.72 1014.03 1014.39 1014.77 1015.17 1015.56 1015.92 1016.23 1016.51 1016.75 1016.99 1017.23 1017.48 1017.75 1018.01 1018.23 1018.38 1018.45 1018.42 1018.29 1018.10 1017.89 1017.71 1017.59 1017.55 1017.61 1017.74 1017.90 1018.07 1018.21
1012.58 1012.25 1011.90 1011.56 1011.25 1011.02 1010.86 1010.79 1010.81 1010.92 1011.10 1011.32 1011.58 1011.84 1012.11 1012.36 1012.61 1012.87 1013.16 1013.49 1013.87 1014.30 1014.76 1015.23 1015.68 1016.09 1016.45 1016.75 1017.01 1017.25 1017.48 1017.72 1017.97 1018.21 1018.43 1018.59 1018.66 1018.64 1018.52 1018.33 1018.11 1017.90 1017.74 1017.66 1017.68 1017.78 1017.93 1018.10 1018.26
1012.30 1012.00 1011.69 1011.42 1011.19 1011.02 1010.91 1010.87 1010.89 1010.97 1011.10 1011.26 1011.45 1011.66 1011.88 1012.12 1012.37 1012.65 1012.97 1013.34 1013.77 1014.25 1014.77 1015.29 1015.80 1016.26 1016.66 1016.99 1017.27 1017.51 1017.73 1017.96 1018.19 1018.42 1018.63 1018.80 1018.89 1018.90 1018.81 1018.64 1018.43 1018.21 1018.02 1017.91 1017.89 1017.95 1018.07 1018.23 1018.39
1012.11 1011.84 1011.58 1011.38 1011.22 1011.11 1011.04 1011.01 1011.01 1011.05 1011.13 1011.25 1011.39 1011.57 1011.78 1012.01 1012.27 1012.57 1012.92 1013.32 1013.78 1014.29 1014.84 1015.39 1015.93 1016.42 1016.85 1017.21 1017.51 1017.75 1017.97 1018.18 1018.39 1018.61 1018.82 1019.00 1019.12 1019.16 1019.12 1018.99 1018.80 1018.60 1018.40 1018.27 1018.20 1018.22 1018.31 1018.44 1018.58
1012.00 1011.76 1011.57 1011.42 1011.31 1011.24 1011.19 1011.15 1011.13 1011.13 1011.17 1011.25 1011.38 1011.55 1011.78 1012.04 1012.34 1012.67 1013.04 1013.46 1013.92 1014.43 1014.97 1015.52 1016.07 1016.57 1017.02 1017.40 1017.71 1017.97 1018.18 1018.38 1018.58 1018.78 1018.98 1019.17 1019.32 1019.40 1019.41 1019.33 1019.19 1019.01 1018.83 1018.68 1018.58 1018.56 1018.60 1018.70 1018.81
1011.95 1011.75 1011.61 1011.51 1011.44 1011.39 1011.33 1011.26 1011.19 1011.15 1011.15 1011.21 1011.35 1011.56 1011.83 1012.16 1012.51 1012.90 1013.30 1013.72 1014.17 1014.64 1015.15 1015.67 1016.20 1016.69 1017.15 1017.54 1017.87 1018.14 1018.36 1018.55 1018.74 1018.92 1019.12 1019.31 1019.47 1019.59 1019.65 1019.63 1019.54 1019.41 1019.25 1019.10 1018.99 1018.93 1018.93 1018.98 1019.07
1011.91 1011.76 1011.67 1011.61 1011.57 1011.51 1011.42 1011.30 1011.18 1011.08 1011.05 1011.10 1011.26 1011.53 1011.88 1012.29 1012.73 1013.17 1013.61 1014.04 1014.46 1014.89 1015.34 1015.81 1016.29 1016.77 1017.22 1017.63 1017.98 1018.27 1018.50 1018.69 1018.87 1019.04 1019.22 1019.40 1019.57 1019.72 1019.82 1019.86 1019.83 1019.75 1019.63 1019.50 1019.38 1019.30 1019.27 1019.29 1019.34
1011.85 1011.76 1011.72 1011.71 1011.68 1011.60 1011.47 1011.28 1011.08 1010.92 1010.84 1010.89 1011.09 1011.42 1011.86 1012.37 1012.90 1013.42 1013.90 1014.33 1014.72 1015.10 1015.49 1015.90 1016.33 1016.78 1017.22 1017.64 1018.02 1018.33 1018.59 1018.79 1018.96 1019.11 1019.27 1019.44 1019.61 1019.77 1019.90 1019.99 1020.03 1020.00 1019.93 1019.84 1019.73 1019.65 1019.61 1019.60 1019.63
1011.72 1011.71 1011.76 1011.80 1011.78 1011.68 1011.49 1011.22 1010.94 1010.70 1010.56 1010.59 1010.81 1011.20 1011.72 1012.33 1012.97 1013.56 1014.09 1014.53 1014.91 1015.24 1015.56 1015.91 1016.29 1016.71 1017.15 1017.58 1017.98 1018.33 1018.61 1018.83 1018.99 1019.13 1019.27 1019.42 1019.57 1019.74 1019.90 1020.03 1020.12 1020.16 1020.15 1020.10 1020.04 1019.97 1019.92 1019.90 1019.91
1011.54 1011.64 1011.78 1011.88 1011.90 1011.78 1011.53 1011.18 1010.80 1010.47 1010.26 1010.25 1010.46 1010.88 1011.48 1012.17 1012.89 1013.56 1014.13 1014.60 1014.97 1015.27 1015.54 1015.83 1016.17 1016.56 1016.99 1017.44 1017.86 1018.24 1018.55 1018.78 1018.95 1019.08 1019.20 1019.32 1019.46 1019.62 1019.80 1019.97 1020.12 1020.22 1020.28 1020.29 1020.26 1020.22 1020.18 1020.16 1020.16
1011.34 1011.57 1011.82 1012.00 1012.05 1011.93 1011.63 1011.21 1010.73 1010.30 1010.00 1009.93 1010.10 1010.52 1011.14 1011.89 1012.67 1013.40 1014.02 1014.52 1014.89 1015.17 1015.42 1015.67 1015.98 1016.34 1016.77 1017.22 1017.66 1018.06 1018.39 1018.64 1018.82 1018.94 1019.04 1019.14 1019.26 1019.42 1019.61 1019.82 1020.01 1020.17 1020.29 1020.37 1020.40 1020.39 1020.38 1020.36 1020.35
1011.16 1011.52 1011.88 1012.15 1012.25 1012.14 1011.81 1011.33 1010.76 1010.23 1009.84 1009.67 1009.78 1010.16 1010.77 1011.53 1012.33 1013.10 1013.76 1014.29 1014.68 1014.96 1015.20 1015.43 1015.72 1016.06 1016.47 1016.92 1017.38 1017.79 1018.14 1018.40 1018.58 1018.69 1018.78 1018.87 1018.99 1019.15 1019.35 1019.58 1019.81 1020.03 1020.21 1020.34 1020.42 1020.46 1020.47 1020.46 1020.45
1011.04 1011.52 1011.99 1012.33 1012.48 1012.39 1012.05 1011.52 1010.89 1010.26 1009.78 1009.51 1009.53 1009.84 1010.39 1011.12 1011.91 1012.69 1013.38 1013.93 1014.34 1014.65 1014.89 1015.12 1015.39 1015.73 1016.12 1016.56 1017.01 1017.42 1017.78 1018.04 1018.23 1018.35 1018.43 1018.52 1018.64 1018.80 1019.01 1019.27 1019.54 1019.80 1020.03 1020.21 1020.33 1020.41 1020.44 1020.45 1020.44
1010.99 1011.55 1012.09 1012.50 1012.69 1012.63 1012.30 1011.75 1011.07 1010.38 1009.81 1009.44 1009.36 1009.56 1010.03 1010.68 1011.44 1012.19 1012.88 1013.45 1013.89 1014.22 1014.48 1014.73 1015.00 1015.33 1015.71 1016.13 1016.56 1016.97 1017.32 1017.58 1017.78 1017.91 1018.01 1018.10 1018.23 1018.40 1018.63 1018.90 1019.20 1019.49 1019.75 1019.97 1020.13 1020.24 1020.29 1020.31 1020.31
1010.97 1011.58 1012.15 1012.58 1012.81 1012.77 1012.46 1011.91 1011.23 1010.50 1009.87 1009.42 1009.23 1009.33 1009.68 1010.23 1010.91 1011.62 1012.28 1012.85 1013.32 1013.68 1013.98 1014.25 1014.53 1014.86 1015.23 1015.63 1016.04 1016.43 1016.76 1017.04 1017.24 1017.39 1017.51 1017.63 1017.78 1017.97 1018.22 1018.51 1018.82 1019.13 1019.41 1019.65 1019.83 1019.96 1020.03 1020.07 1020.08
1010.95 1011.54 1012.09 1012.51 1012.74 1012.73 1012.45 1011.94 1011.28 1010.56 1009.90 1009.40 1009.13 1009.11 1009.34 1009.77 1010.35 1010.98 1011.60 1012.16 1012.63 1013.03 1013.36 1013.66 1013.96 1014.29 1014.65 1015.04 1015.43 1015.80 1016.13 1016.41 1016.63 1016.81 1016.96 1017.12 1017.31 1017.53 1017.79 1018.09 1018.41 1018.73 1019.02 1019.26 1019.45 1019.59 1019.68 1019.73 1019.75
1010.87 1011.37 1011.85 1012.23 1012.44 1012.44 1012.20 1011.75 1011.15 1010.49 1009.85 1009.34 1009.01 1008.90 1009.01 1009.32 1009.78 1010.31 1010.86 1011.38 1011.85 1012.26 1012.62 1012.96 1013.29 1013.63 1013.99 1014.36 1014.74 1015.10 1015.43 1015.72 1015.97 1016.18 1016.38 1016.59 1016.81 1017.07 1017.35 1017.67 1017.99 1018.30 1018.58 1018.83 1019.02 1019.16 1019.26 1019.32 1019.36
1010.67 1011.05 1011.43 1011.73 1011.90 1011.90 1011.71 1011.35 1010.85 1010.28 1009.71 1009.23 1008.88 1008.71 1008.72 1008.91 1009.24 1009.66 1010.12 1010.59 1011.03 1011.44 1011.81 1012.17 1012.52 1012.88 1013.24 1013.61 1013.99 1014.35 1014.68 1014.99 1015.27 1015.53 1015.77 1016.03 1016.30 1016.59 1016.90 1017.22 1017.54 1017.84 1018.12 1018.35 1018.53 1018.68 1018.78 1018.86 1018.92
Thickness
5810 5814 5816 5810 5799 5796 5790 5795 5801 5800 5800 5804 5803 5798 5793 5790 5784 5779 5802 5811 5807 5801 5793 5782 5779 5777 5775 5774 5772 5771 5769 5767 5766 5764 5762 5760 5759 5757 5756 5755 5754 5754 5753 5752 5751 5750 5749 5748 5747
5815 5815 5809 5804 5794 5786 5786 5796 5797 5800 5802 5800 5797 5795 5791 5790 5794 5793 5800 5805 5803 5798 5791 5784 5777 5774 5772 5771 5770 5768 5767 5765 5763 5761 5760 5758 5757 5756 5754 5753 5753 5752 5751 5750 5749 5747 5747 5746 5745
5814 5812 5803 5799 5793 5787 5786 5796 5799 5801 5802 5796 5792 5794 5791 5789 5791 5792 5799 5801 5800 5795 5789 5781 5775 5772 5770 5768 5767 5765 5764 5762 5760 5759 5757 5756 5755 5754 5752 5751 5751 5750 5749 5748 5747 5745 5744 5744 5743
5810 5805 5801 5793 5788 5793 5793 5797 5800 5795 5795 5795 5792 5788 5791 5794 5794 5796 5798 5799 5797 5791 5786 5778 5772 5769 5767 5765 5764 5762 5761 5760 5758 5756 5755 5754 5752 5751 5750 5749 5748 5748 5747 5745 5744 5743 5742 5741 5740
5808 5800 5791 5787 5787 5793 5798 5799 5798 5791 5789 5790 5789 5785 5784 5791 5796 5796 5794 5795 5792 5788 5784 5776 5769 5766 5764 5762 5761 5760 5759 5757 5755 5753 5752 5751 5749 5748 5747 5746 5745 5745 5744 5742 5741 5740 5739 5738 5738
5799 5796 5785 5782 5784 5790 5797 5798 5794 5788 5788 5787 5785 5781 5780 5786 5788 5789 5790 5789 5789 5787 5782 5773 5765 5763 5761 5759 5758 5757 5756 5754 5752 5750 5749 5748 5746 5745 5744 5743 5742 5742 5741 5740 5738 5738 5737 5736 5736
5793 5789 5782 5782 5781 5784 5791 5796 5791 5786 5783 5784 5786 5777 5776 5778 5782 5785 5785 5784 5785 5783 5779 5772 5766 5761 5758 5756 5755 5754 5753 5751 5749 5747 5746 5745 5743 5742 5741 5740 5739 5739 5738 5737 5736 5735 5734 5733 5733
5797 5790 5783 5781 5777 5781 5792 5792 5789 5784 5782 5786 5784 5773 5770 5772 5778 5779 5779 5778 5778 5777 5775 5770 5768 5763 5759 5756 5752 5751 5749 5748 5746 5744 5743 5742 5741 5740 5739 5738 5737 5736 5736 5735 5734 5733 5732 5731 5731
5794 5782 5779 5781 5777 5783 5792 5786 5786 5787 5781 5779 5780 5778 5778 5774 5772 5770 5768 5768 5767 5768 5769 5768 5765 5761 5759 5757 5752 5748 5746 5744 5743 5742 5740 5739 5741 5741 5738 5736 5734 5734 5734 5733 5732 5731 5730 5729 5729
5787 5779 5783 5789 5789 5787 5788 5783 5782 5777 5772 5770 5769 5771 5772 5767 5763 5761 5761 5760 5760 5760 5761 5762 5762 5758 5757 5755 5750 5748 5747 5744 5743 5741 5739 5738 5737 5737 5737 5733 5732 5732 5731 5731 5730 5729 5729 5729 5731
5787 5783 5790 5793 5794 5790 5785 5783 5783 5773 5767 5767 5764 5762 5762 5759 5757 5757 5757 5758 5758 5758 5757 5757 5757 5754 5753 5750 5748 5746 5744 5741 5740 5737 5735 5734 5734 5734 5734 5733 5732 5731 5730 5731 5730 5730 5730 5730 5729
5787 5790 5791 5791 5793 5787 5783 5782 5777 5770 5767 5767 5767 5764 5758 5754 5753 5753 5752 5754 5754 5753 5752 5754 5752 5750 5748 5748 5746 5743 5741 5738 5737 5733 5732 5732 5732 5731 5731 5730 5731 5731 5730 5728 5729 5728 5728 5727 5726
5786 5789 5794 5795 5792 5788 5782 5777 5772 5768 5767 5765 5762 5758 5753 5751 5751 5751 5751 5751 5750 5748 5748 5749 5748 5745 5743 5742 5742 5740 5737 5736 5733 5731 5729 5728 5730 5729 5729 5727 5727 5728 5728 5727 5726 5727 5725 5725 5724
5794 5793 5793 5793 5789 5784 5776 5774 5768 5765 5764 5758 5754 5750 5748 5746 5745 5744 5744 5745 5745 5744 5744 5745 5743 5742 5740 5739 5737 5736 5735 5732 5732 5729 5727 5725 5726 5725 5725 5725 5724 5725 5725 5725 5724 5724 5723 5724 5722
5796 5787 5790 5790 5786 5782 5774 5766 5764 5764 5759 5752 5749 5745 5742 5741 5740 5740 5741 5741 5741 5740 5741 5740 5740 5739 5738 5736 5735 5733 5732 5731 5729 5726 5723 5722 5723 5721 5722 5723 5723 5722 5721 5720 5720 5720 5721 5721 5721
5793 5786 5782 5787 5783 5778 5766 5758 5762 5761 5755 5748 5744 5740 5736 5734 5735 5737 5737 5737 5738 5737 5736 5736 5738 5736 5734 5733 5731 5730 5729 5727 5726 5724 5722 5719 5718 5718 5719 5721 5721 5718 5719 5720 5719 5720 5720 5719 5720
5791 5782 5779 5782 5782 5777 5766 5759 5761 5759 5753 5745 5740 5737 5732 5729 5729 5731 5733 5733 5734 5733 5732 5731 5733 5731 5730 5729 5728 5728 5726 5724 5723 5722 5721 5718 5716 5716 5717 5717 5716 5716 5718 5718 5718 5717 5717 5716 5716
5777 5778 5778 5776 5780 5773 5765 5762 5762 5758 5751 5745 5739 5734 5730 5727 5728 5730 5730 5731 5731 5730 5729 5729 5729 5728 5727 5726 5725 5725 5723 5723 5722 5720 5718 5716 5715 5714 5715 5715 5713 5715 5716 5714 5713 5712 5711 5713 5712
5784 5778 5775 5778 5780 5771 5765 5762 5762 5758 5750 5743 5739 5734 5730 5728 5730 5730 5729 5730 5728 5726 5727 5727 5727 5726 5725 5724 5724 5723 5722 5722 5721 5719 5716 5715 5714 5713 5712 5714 5711 5712 5713 5711 5712 5711 5711 5711 5711
5785 5778 5779 5780 5777 5769 5765 5763 5764 5758 5751 5747 5742 5737 5734 5731 5729 5728 5728 5728 5727 5726 5726 5726 5726 5725 5725 5725 5726 5724 5724 5722 5722 5719 5715 5714 5713 5712 5712 5710 5712 5710 5708 5707 5707 5707 5710 5710 5709
5787 5781 5778 5773 5774 5771 5764 5763 5759 5759 5756 5751 5747 5744 5741 5737 5733 5730 5729 5728 5728 5727 5727 5728 5726 5725 5726 5725 5724 5723 5720 5720 5719 5717 5716 5714 5712 5711 5710 5709 5709 5707 5709 5707 5705 5705 5705 5707 5707
5782 5789 5781 5773 5767 5768 5761 5754 5759 5760 5754 5752 5749 5746 5744 5742 5739 5735 5733 5731 5730 5730 5730 5729 5726 5726 5725 5724 5724 5723 5722 5721 5721 5720 5719 5715 5713 5711 5709 5708 5706 5706 5707 5704 5705 5704 5704 5703 5706
5787 5788 5781 5774 5767 5764 5764 5757 5765 5763 5756 5756 5755 5751 5749 5747 5744 5740 5738 5736 5735 5734 5732 5730 5727 5725 5725 5724 5724 5722 5724 5724 5724 5721 5718 5715 5714 5711 5710 5707 5706 5704 5705 5703 5702 5701 5702 5703 5703
5788 5782 5778 5774 5773 5757 5759 5753 5758 5768 5763 5763 5761 5756 5753 5751 5748 5745 5743 5740 5737 5735 5733 5731 5727 5726 5725 5724 5724 5723 5724 5723 5722 5719 5718 5716 5716 5713 5710 5708 5705 5704 5704 5701 5700 5699 5699 5699 5697
5784 5773 5764 5761 5759 5757 5761 5757 5762 5773 5774 5770 5766 5761 5758 5755 5751 5747 5743 5741 5738 5737 5735 5734 5730 5728 5727 5726 5725 5725 5724 5723 5720 5720 5719 5718 5718 5715 5712 5710 5706 5705 5702 5700 5699 5697 5698 5696 5694
5782 5776 5755 5741 5747 5759 5764 5758 5771 5779 5778 5776 5773 5769 5763 5759 5756 5752 5749 5746 5743 5741 5738 5736 5734 5731 5730 5728 5727 5727 5726 5725 5725 5722 5722 5719 5719 5718 5715 5710 5706 5704 5701 5700 5697 5698 5696 5694 5692
5777 5777 5783 5764 5759 5751 5762 5767 5775 5777 5774 5773 5771 5769 5764 5763 5760 5757 5754 5752 5748 5745 5743 5741 5738 5736 5734 5732 5730 5728 5727 5726 5726 5723 5721 5721 5719 5718 5713 5709 5706 5703 5700 5698 5696 5696 5693 5692 5690
5784 5782 5770 5760 5741 5739 5752 5758 5764 5766 5768 5770 5769 5768 5768 5766 5764 5762 5760 5757 5754 5751 5748 5745 5742 5739 5738 5735 5733 5732 5729 5727 5725 5723 5721 5720 5718 5715 5712 5709 5706 5703 5700 5697 5694 5693 5691 5688 5687
5769 5767 5767 5766 5757 5739 5737 5754 5776 5770 5770 5770 5771 5772 5772 5770 5769 5767 5764 5763 5760 5757 5753 5748 5745 5742 5740 5739 5736 5734 5732 5729 5726 5723 5722 5719 5717 5714 5711 5708 5705 5702 5699 5696 5692 5691 5690 5686 5685
5778 5774 5766 5751 5748 5749 5745 5756 5779 5776 5775 5774 5773 5773 5774 5773 5773 5771 5767 5764 5761 5758 5755 5751 5749 5746 5744 5741 5738 5734 5732 5730 5727 5724 5722 5719 5716 5713 5710 5706 5703 5701 5698 5695 5691 5688 5687 5685 5682